{"data":{"norad_id":69119,"intl_designator":"2026-108R","name":"QIANFAN-160","alt_names":[],"object_type":"PAYLOAD","status":"ACTIVE","operator":null,"country":"PRC","launch_date":"2026-05-17","launch_site_code":"WSC","launch_vehicle":null,"mission":null,"orbit_class":"UNKNOWN","rcs_meters":null,"size_class":null,"mass_kg":null,"dimensions":null,"purposes":[],"wikipedia_slug":null,"has_3d_model":false,"image_url":null,"decayed_at":null,"tle_current":{"epoch":"2026-09-20T05:16:32.734848Z","epoch_age_seconds":47390,"freshness":"FRESH","line1":"1 69119U 26108R   26263.21982332  .00000124  00000+0  17303-3 0  9995","line2":"2 69119  89.0198  12.5458 0002398 105.2994 254.8422 13.51023957 17281","mean_motion":13.51023957,"eccentricity":0.0002398,"inclination_deg":89.0198,"raan_deg":12.5458,"arg_perigee_deg":105.2994,"mean_anomaly_deg":254.8422,"bstar":0.00017303,"rev_number":1728,"period_min":106.58582274126,"perigee_km":1066.7078504724,"apogee_km":1070.2792544854,"semimajor_km":7446.6305524789,"source":"CELESTRAK","updated_at":"2026-09-20T09:00:24.683204Z"}}}